Time,TemperatureF,DewpointF,PressureIn,WindDirection,WindDirectionDegrees,WindSpeedMPH,WindSpeedGustMPH,Humidity,HourlyPrecipIn,Conditions,Clouds,dailyrainin,SoftwareType,DateUTC
2013-01-07 00:00:00,19.8,9.9,29.94,South,187,12.0,19.7,65,0.00,,,-99.99,FreeWX-Wi 1.01,2013-01-07 06:00:00,
2013-01-07 00:17:00,20.7,9.7,29.94,South,185,13.0,20.6,62,0.00,,,-99.99,FreeWX-Wi 1.01,2013-01-07 06:17:00,
2013-01-07 00:43:00,21.2,9.9,29.91,South,187,13.0,21.0,61,0.00,,,-99.99,FreeWX-Wi 1.01,2013-01-07 06:43:00,
2013-01-07 00:52:00,21.7,10.4,29.91,South,184,13.0,0.0,61,0.00,,,-99.99,FreeWX-Wi 1.01,2013-01-07 06:52:00,
2013-01-07 00:54:00,21.7,10.4,29.91,South,184,13.0,18.8,61,0.00,,,-99.99,FreeWX-Wi 1.01,2013-01-07 06:54:00,
2013-01-07 06:43:00,23.7,11.8,29.88,SW,234,8.0,11.0,60,0.00,,,-99.99,FreeWX-Wi 1.01,2013-01-07 12:43:00,
2013-01-07 06:53:00,23.5,11.3,29.88,SW,232,8.0,12.8,59,0.00,,,-99.99,FreeWX-Wi 1.01,2013-01-07 12:53:00,
2013-01-07 07:03:00,23.5,11.7,29.88,SW,233,7.0,10.5,60,0.00,,,-99.99,FreeWX-Wi 1.01,2013-01-07 13:03:00,
2013-01-07 07:14:00,23.2,11.8,29.88,SW,233,7.0,8.7,61,0.00,,,-99.99,FreeWX-Wi 1.01,2013-01-07 13:14:00,
2013-01-07 07:25:00,23.0,12.0,29.88,SW,231,6.0,12.3,62,0.00,,,-99.99,FreeWX-Wi 1.01,2013-01-07 13:25:00,
2013-01-07 07:35:00,23.0,12.0,29.88,SW,231,7.0,11.0,62,0.00,,,-99.99,FreeWX-Wi 1.01,2013-01-07 13:35:00,
2013-01-07 07:46:00,22.8,11.8,29.88,SW,235,7.0,10.5,62,0.00,,,-99.99,FreeWX-Wi 1.01,2013-01-07 13:46:00,
2013-01-07 07:57:00,22.6,12.0,29.88,WSW,239,7.0,11.9,63,0.00,,,-99.99,FreeWX-Wi 1.01,2013-01-07 13:57:00,
2013-01-07 08:07:00,22.6,12.4,29.85,SW,236,7.0,10.5,64,0.00,,,-99.99,FreeWX-Wi 1.01,2013-01-07 14:07:00,
2013-01-07 08:18:00,22.5,12.2,29.88,SW,236,7.0,15.9,64,0.00,,,-99.99,FreeWX-Wi 1.01,2013-01-07 14:18:00,
2013-01-07 13:38:00,33.1,16.5,29.88,WSW,256,8.0,10.1,50,0.00,,,-99.99,FreeWX-Wi 1.01,2013-01-07 19:38:00,
2013-01-07 14:01:00,33.6,17.4,29.88,WSW,258,7.0,8.7,51,0.00,,,-99.99,FreeWX-Wi 1.01,2013-01-07 20:01:00,
2013-01-07 14:14:00,34.0,16.9,29.88,WSW,256,6.0,10.1,49,0.00,,,-99.99,FreeWX-Wi 1.01,2013-01-07 20:14:00,
2013-01-07 14:48:00,33.8,16.2,29.88,WSW,251,5.0,8.1,48,0.00,,,-99.99,FreeWX-Wi 1.01,2013-01-07 20:48:00,
2013-01-07 14:58:00,33.4,16.9,29.88,WSW,249,5.0,7.6,50,0.00,,,-99.99,FreeWX-Wi 1.01,2013-01-07 20:58:00,
2013-01-07 15:08:00,33.4,16.9,29.88,WSW,247,5.0,8.1,50,0.00,,,-99.99,FreeWX-Wi 1.01,2013-01-07 21:08:00,
2013-01-07 15:18:00,33.3,16.7,29.88,WSW,248,5.0,8.3,50,0.00,,,-99.99,FreeWX-Wi 1.01,2013-01-07 21:18:00,
2013-01-07 15:28:00,33.6,17.1,29.91,WSW,252,5.0,8.1,50,0.00,,,-99.99,FreeWX-Wi 1.01,2013-01-07 21:28:00,
2013-01-07 15:38:00,33.6,17.1,29.91,WSW,256,5.0,6.3,50,0.00,,,-99.99,FreeWX-Wi 1.01,2013-01-07 21:38:00,
2013-01-07 15:48:00,33.8,16.2,29.91,WSW,255,5.0,6.3,48,0.00,,,-99.99,FreeWX-Wi 1.01,2013-01-07 21:48:00,
2013-01-07 15:58:00,33.1,15.6,29.91,WSW,252,5.0,7.6,48,0.00,,,-99.99,FreeWX-Wi 1.01,2013-01-07 21:58:00,
2013-01-07 16:08:00,32.2,15.6,29.91,WSW,246,4.0,6.3,50,0.00,,,-99.99,FreeWX-Wi 1.01,2013-01-07 22:08:00,
2013-01-07 16:18:00,31.8,15.8,29.91,WSW,241,4.0,6.3,51,0.00,,,-99.99,FreeWX-Wi 1.01,2013-01-07 22:18:00,
2013-01-07 16:28:00,31.6,15.6,29.91,SW,233,4.0,5.8,51,0.00,,,-99.99,FreeWX-Wi 1.01,2013-01-07 22:28:00,
2013-01-07 16:38:00,30.9,14.9,29.91,SW,230,4.0,6.3,51,0.00,,,-99.99,FreeWX-Wi 1.01,2013-01-07 22:38:00,
2013-01-07 16:48:00,30.2,15.1,29.91,SW,236,4.0,8.3,53,0.00,,,-99.99,FreeWX-Wi 1.01,2013-01-07 22:48:00,
2013-01-07 16:58:00,29.1,14.5,29.91,WSW,242,5.0,7.6,54,0.00,,,-99.99,FreeWX-Wi 1.01,2013-01-07 22:58:00,
2013-01-07 17:08:00,28.4,14.7,29.91,WSW,247,5.0,6.7,56,0.00,,,-99.99,FreeWX-Wi 1.01,2013-01-07 23:08:00,
2013-01-07 17:18:00,27.3,13.3,29.94,WSW,251,4.0,6.3,55,0.00,,,-99.99,FreeWX-Wi 1.01,2013-01-07 23:18:00,
2013-01-07 17:29:00,26.4,13.3,29.94,WSW,249,4.0,6.7,57,0.00,,,-99.99,FreeWX-Wi 1.01,2013-01-07 23:29:00,
2013-01-07 17:39:00,26.2,13.5,29.94,WSW,243,4.0,5.8,58,0.00,,,-99.99,FreeWX-Wi 1.01,2013-01-07 23:39:00,
2013-01-07 17:49:00,25.9,13.1,29.94,WSW,239,3.0,4.5,58,0.00,,,-99.99,FreeWX-Wi 1.01,2013-01-07 23:49:00,
2013-01-07 17:59:00,25.3,12.7,29.94,WSW,246,3.0,4.9,58,0.00,,,-99.99,FreeWX-Wi 1.01,2013-01-07 23:59:00,
2013-01-07 18:09:00,25.2,13.3,29.94,WSW,248,3.0,4.0,60,0.00,,,-99.99,FreeWX-Wi 1.01,2013-01-08 00:09:00,
2013-01-07 18:19:00,25.2,15.1,29.94,WSW,239,3.0,5.8,65,0.00,,,-99.99,FreeWX-Wi 1.01,2013-01-08 00:19:00,
2013-01-07 18:29:00,25.2,16.5,29.94,SW,222,3.0,5.8,69,0.00,,,-99.99,FreeWX-Wi 1.01,2013-01-08 00:29:00,
2013-01-07 18:39:00,26.1,19.2,29.94,SW,220,4.0,7.6,75,0.00,,,-99.99,FreeWX-Wi 1.01,2013-01-08 00:39:00,
2013-01-07 18:49:00,26.2,18.9,29.94,SW,225,4.0,7.6,73,0.00,,,-99.99,FreeWX-Wi 1.01,2013-01-08 00:49:00,
2013-01-07 18:59:00,26.2,17.8,29.94,WSW,237,4.0,6.3,70,0.00,,,-99.99,FreeWX-Wi 1.01,2013-01-08 00:59:00,
2013-01-07 19:09:00,25.5,15.8,29.94,WSW,246,5.0,6.7,66,0.00,,,-99.99,FreeWX-Wi 1.01,2013-01-08 01:09:00,
2013-01-07 19:19:00,25.3,15.3,29.94,WSW,253,5.0,8.1,65,0.00,,,-99.99,FreeWX-Wi 1.01,2013-01-08 01:19:00,
2013-01-07 19:29:00,25.5,16.2,29.94,WSW,256,5.0,8.1,67,0.00,,,-99.99,FreeWX-Wi 1.01,2013-01-08 01:29:00,
2013-01-07 19:39:00,25.3,15.6,29.94,WSW,253,5.0,6.3,66,0.00,,,-99.99,FreeWX-Wi 1.01,2013-01-08 01:39:00,
2013-01-07 19:49:00,25.3,15.6,29.94,WSW,250,5.0,6.3,66,0.00,,,-99.99,FreeWX-Wi 1.01,2013-01-08 01:49:00,
2013-01-07 19:59:00,25.2,15.4,29.94,WSW,250,4.0,6.3,66,0.00,,,-99.99,FreeWX-Wi 1.01,2013-01-08 01:59:00,
2013-01-07 20:09:00,24.8,15.1,29.94,WSW,245,4.0,4.0,66,0.00,,,-99.99,FreeWX-Wi 1.01,2013-01-08 02:09:00,
2013-01-07 20:19:00,24.8,15.1,29.91,WSW,245,4.0,6.3,66,0.00,,,-99.99,FreeWX-Wi 1.01,2013-01-08 02:19:00,
2013-01-07 20:29:00,24.1,14.0,29.91,WSW,248,4.0,6.3,65,0.00,,,-99.99,FreeWX-Wi 1.01,2013-01-08 02:29:00,
2013-01-07 20:39:00,23.4,13.3,29.91,West,261,4.0,4.9,65,0.00,,,-99.99,FreeWX-Wi 1.01,2013-01-08 02:39:00,
2013-01-07 20:49:00,22.6,12.4,29.94,West,266,3.0,4.0,64,0.00,,,-99.99,FreeWX-Wi 1.01,2013-01-08 02:49:00,
2013-01-07 20:59:00,21.9,12.0,29.94,West,266,3.0,4.9,65,0.00,,,-99.99,FreeWX-Wi 1.01,2013-01-08 02:59:00,
2013-01-07 21:09:00,22.1,12.6,29.94,West,263,3.0,5.4,66,0.00,,,-99.99,FreeWX-Wi 1.01,2013-01-08 03:09:00,
2013-01-07 21:19:00,21.6,12.0,29.94,West,259,3.0,4.9,66,0.00,,,-99.99,FreeWX-Wi 1.01,2013-01-08 03:19:00,
2013-01-07 21:29:00,22.3,13.6,29.94,West,259,3.0,5.8,69,0.00,,,-99.99,FreeWX-Wi 1.01,2013-01-08 03:29:00,
2013-01-07 21:39:00,22.6,14.7,29.94,WSW,254,4.0,5.8,71,0.00,,,-99.99,FreeWX-Wi 1.01,2013-01-08 03:39:00,
2013-01-07 22:03:00,22.8,14.9,29.94,West,259,4.0,6.3,71,0.00,,,-99.99,FreeWX-Wi 1.01,2013-01-08 04:03:00,
2013-01-07 22:13:00,22.6,14.4,29.94,West,263,3.0,3.6,70,0.00,,,-99.99,FreeWX-Wi 1.01,2013-01-08 04:13:00,
2013-01-07 22:23:00,23.0,15.1,29.94,West,263,3.0,7.6,71,0.00,,,-99.99,FreeWX-Wi 1.01,2013-01-08 04:23:00,
2013-01-07 22:33:00,23.4,15.4,29.94,West,260,2.0,5.4,71,0.00,,,-99.99,FreeWX-Wi 1.01,2013-01-08 04:33:00,
2013-01-07 22:43:00,23.9,15.8,29.94,WSW,253,4.0,5.8,71,0.00,,,-99.99,FreeWX-Wi 1.01,2013-01-08 04:43:00,
2013-01-07 22:53:00,24.1,16.0,29.94,WSW,252,3.0,5.4,71,0.00,,,-99.99,FreeWX-Wi 1.01,2013-01-08 04:53:00,
2013-01-07 23:03:00,24.1,15.8,29.94,WSW,253,4.0,4.9,70,0.00,,,-99.99,FreeWX-Wi 1.01,2013-01-08 05:03:00,
2013-01-07 23:13:00,23.5,14.5,29.94,WSW,254,3.0,4.9,68,0.00,,,-99.99,FreeWX-Wi 1.01,2013-01-08 05:13:00,
2013-01-07 23:23:00,22.8,13.8,29.94,WSW,251,2.0,2.7,68,0.00,,,-99.99,FreeWX-Wi 1.01,2013-01-08 05:23:00,
2013-01-07 23:33:00,22.1,12.9,29.97,WSW,249,1.0,2.7,67,0.00,,,-99.99,FreeWX-Wi 1.01,2013-01-08 05:33:00,
2013-01-07 23:43:00,20.8,11.3,29.94,WSW,248,1.0,4.0,66,0.00,,,-99.99,FreeWX-Wi 1.01,2013-01-08 05:43:00,
2013-01-07 23:53:00,20.1,10.6,29.94,North,-999,0.0,2.2,66,0.00,,,-99.99,FreeWX-Wi 1.01,2013-01-08 05:53:00,